Laramie, WY

10:31 AM MDT on August 17, 2017 (GMT -0600)
Laramie Regional

Weather History for KLAR - February, 2014

Change the Weather History Date:

Saturday, February 22, 2014

  Actual Average Record
Temperature  
Mean Temperature 23 °F 25 °F  
Max Temperature 30 °F 37 °F 61 °F (1958)
Min Temperature 16 °F 13 °F -15 °F (2010)
Degree Days  
Heating Degree Days 42 40  
Month to date heating degree days 909 925  
Since 1 July heating degree days 5770 5940  
Cooling Degree Days 0 0  
Month to date cooling degree days 0 0  
Year to date cooling degree days 0 0  
Moisture  
Dew Point 18 °F    
Average Humidity 71    
Maximum Humidity 92    
Minimum Humidity 50    
Precipitation  
Precipitation 0.06 in 0.02 in 0.17 in (1964)
Month to date precipitation 0.09 0.26  
Year to date precipitation 0.77 0.53  
Sea Level Pressure  
Sea Level Pressure 29.82 in    
Wind  
Wind Speed 14 mph (West)    
Max Wind Speed 36 mph    
Max Gust Speed 42 mph    
Visibility 3 miles    
Events Fog , Snow    
T = Trace of Precipitation, MM = Missing Value Source: NWS Daily Summary

Daily Weather History Graph

Daily Weather History Graph

Search for Another Location

Airport or City:

Trip Planner

Search our weather history database for the weather conditions in past years. The results will help you decide how hot, cold, wet, or windy it might be!

Date:

Astronomy

Feb. 22, 2014 Rise Set
Actual Time 6:47 AM MST 5:45 PM MST
Civil Twilight 6:19 AM MST 6:13 PM MST
Nautical Twilight 5:47 AM MST 6:45 PM MST
Astronomical Twilight 5:15 AM MST 7:17 PM MST
Moon 12:47 AM MST (2/22) 10:56 AM MST (2/22)
Length of Visible Light 11h 53m
Length of Day
10h 57m
Waning Gibbous, 49% of the Moon is Illuminated
Feb 22
Waning Gibbous
Mar 1
New
Mar 8
First Quarter
Mar 16
Full
Mar 23
Last Quarter

Hourly Weather History & Observations

Time (MST) Temp. Windchill Dew Point Humidity Pressure Visibility Wind Dir Wind Speed Gust Speed Precip Events Conditions
12:53 AM 26.1 °F 9.8 °F 10.9 °F 53% 29.78 in 10.0 mi West 28.8 mph 38.0 mph N/A   Clear
1:53 AM 25.0 °F 8.6 °F 12.9 °F 60% 29.78 in 10.0 mi West 27.6 mph 32.2 mph N/A   Partly Cloudy
2:53 AM 24.1 °F 8.0 °F 10.0 °F 55% 29.78 in 10.0 mi West 25.3 mph 35.7 mph N/A   Clear
3:53 AM 23.0 °F 7.2 °F 10.0 °F 58% 29.80 in 10.0 mi West 23.0 mph - N/A   Clear
4:53 AM 25.0 °F 10.2 °F 14.0 °F 63% 29.80 in 10.0 mi West 21.9 mph - N/A   Overcast
5:53 AM 25.0 °F 11.3 °F 14.0 °F 63% 29.81 in 10.0 mi West 18.4 mph - N/A   Overcast
6:53 AM 24.1 °F 11.0 °F 16.0 °F 71% 29.82 in 9.0 mi West 16.1 mph - N/A   Overcast
7:32 AM 24.1 °F 11.5 °F 17.1 °F 75% 29.78 in 1.8 mi West 15.0 mph - 0.00 in Snow Light Snow
7:53 AM 23.0 °F 10.6 °F 19.0 °F 85% 29.83 in 1.5 mi West 13.8 mph - 0.00 in Snow Light Snow
8:27 AM 23.0 °F 12.4 °F 19.9 °F 88% 29.79 in 0.8 mi SW 10.4 mph - 0.00 in Snow Light Snow
8:34 AM 23.0 °F 13.1 °F 21.0 °F 92% 29.78 in 0.5 mi SW 9.2 mph - 0.00 in Fog , Snow Light Snow
8:53 AM 24.1 °F 12.5 °F 21.0 °F 88% 29.84 in 0.5 mi SW 12.7 mph - 0.00 in Fog , Snow Light Snow
9:20 AM 24.1 °F 12.5 °F 21.0 °F 88% 29.78 in 0.8 mi WSW 12.7 mph - 0.00 in Snow Light Snow
9:38 AM 24.1 °F 12.0 °F 21.0 °F 88% 29.78 in 1.0 mi WSW 13.8 mph - 0.00 in Snow Light Snow
9:53 AM 25.0 °F 13.6 °F 21.0 °F 85% 29.83 in 1.0 mi WSW 12.7 mph - 0.00 in Snow Light Snow
10:01 AM 26.1 °F 12.3 °F 21.0 °F 81% 29.78 in 4.0 mi West 19.6 mph 25.3 mph 0.00 in Snow Light Snow
10:53 AM 28.9 °F 14.8 °F 21.0 °F 72% 29.79 in 8.0 mi WSW 24.2 mph 29.9 mph 0.00 in   Overcast
11:29 AM 28.0 °F 14.3 °F 19.0 °F 69% 29.76 in 1.8 mi WNW 21.9 mph 31.1 mph 0.00 in Snow Light Snow
11:36 AM 30.0 °F 16.6 °F 18.0 °F 61% 29.76 in 3.0 mi West 23.0 mph 34.5 mph 0.00 in Snow Light Snow
11:53 AM 28.9 °F 14.5 °F 19.0 °F 67% 29.78 in 10.0 mi WSW 25.3 mph - 0.00 in   Overcast
12:29 PM 27.0 °F 11.9 °F 19.0 °F 72% 29.76 in 1.8 mi West 25.3 mph 36.8 mph 0.00 in Snow Light Snow
12:45 PM 27.0 °F 12.5 °F 21.9 °F 81% 29.75 in 1.0 mi West 23.0 mph - 0.00 in Snow Light Snow
12:53 PM 27.0 °F 13.2 °F 21.0 °F 78% 29.79 in 2.5 mi West 20.7 mph - 0.00 in Snow Light Snow
1:01 PM 28.0 °F 14.9 °F 21.0 °F 75% 29.75 in 4.0 mi West 19.6 mph - 0.00 in Snow Light Snow
1:13 PM 28.0 °F 14.6 °F 19.9 °F 72% 29.75 in 10.0 mi West 20.7 mph - 0.00 in   Overcast
1:53 PM 27.0 °F 15.2 °F 19.9 °F 75% 29.80 in 9.0 mi West 15.0 mph 26.5 mph 0.00 in   Overcast
2:07 PM 27.0 °F 12.5 °F 21.0 °F 78% 29.75 in 1.5 mi West 23.0 mph 26.5 mph 0.00 in Snow Light Snow
2:32 PM 26.1 °F 13.6 °F 21.9 °F 84% 29.76 in 0.8 mi West 16.1 mph - 0.00 in Snow Light Snow
2:40 PM 26.1 °F 15.0 °F 21.9 °F 84% 29.76 in 0.5 mi West 12.7 mph - 0.00 in Fog , Snow Light Snow
2:53 PM 26.1 °F 17.6 °F 23.0 °F 88% 29.81 in 0.5 mi NW 8.1 mph - 0.00 in Fog , Snow Light Snow
3:00 PM 26.1 °F 16.8 °F 23.0 °F 88% 29.76 in 1.0 mi WNW 9.2 mph - 0.00 in Snow Light Snow
3:05 PM 26.1 °F 14.0 °F 21.9 °F 84% 29.76 in 0.5 mi WNW 15.0 mph 18.4 mph 0.00 in Fog , Snow Snow
3:15 PM 26.1 °F 15.0 °F 21.9 °F 84% 29.76 in 1.0 mi WNW 12.7 mph - 0.00 in Snow Light Snow
3:22 PM 25.0 °F 14.8 °F 23.0 °F 92% 29.76 in 0.5 mi NNW 10.4 mph - 0.00 in Fog , Snow Light Snow
3:38 PM 23.0 °F 10.6 °F 19.9 °F 88% 29.76 in 0.8 mi North 13.8 mph - 0.00 in Snow Light Snow
3:45 PM 21.9 °F 9.8 °F 19.0 °F 89% 29.77 in 1.2 mi North 12.7 mph - 0.00 in Snow Light Snow
3:50 PM 21.2 °F 9.5 °F 19.4 °F 93% 29.77 in 0.5 mi North 11.5 mph - 0.00 in Fog , Snow Snow
3:53 PM 21.9 °F 11.7 °F 19.0 °F 89% 29.85 in 0.5 mi North 9.2 mph - 0.00 in Fog , Snow Snow
4:10 PM 21.9 °F 12.5 °F 19.0 °F 89% 29.78 in 0.8 mi NNE 8.1 mph - 0.00 in Snow Light Snow
4:12 PM 21.9 °F 12.5 °F 19.0 °F 89% 29.78 in 1.0 mi NNE 8.1 mph - 0.00 in Snow Light Snow
4:23 PM 21.9 °F 12.5 °F 19.0 °F 89% 29.79 in 0.8 mi NNE 8.1 mph - 0.00 in Snow Light Snow
4:31 PM 21.0 °F 12.4 °F 19.0 °F 92% 29.79 in 0.2 mi NNE 6.9 mph - 0.00 in Fog , Snow Snow
4:50 PM 21.2 °F 13.6 °F 19.4 °F 93% 29.79 in 0.2 mi North 5.8 mph - 0.01 in Fog , Snow Snow
4:53 PM 21.0 °F 14.6 °F 19.0 °F 92% 29.87 in 0.2 mi North 4.6 mph - 0.01 in Fog , Snow Snow
5:53 PM 19.9 °F 13.4 °F 18.0 °F 92% 29.91 in 0.5 mi North 4.6 mph - 0.02 in Fog , Snow Light Snow
5:57 PM 19.9 °F 12.1 °F 18.0 °F 92% 29.83 in 1.0 mi NNE 5.8 mph - 0.00 in Snow Light Snow
6:07 PM 19.9 °F 12.1 °F 17.1 °F 89% 29.82 in 0.5 mi NE 5.8 mph - 0.01 in Fog , Snow Snow
6:18 PM 19.9 °F 12.1 °F 17.1 °F 89% 29.83 in 1.0 mi NNE 5.8 mph - 0.01 in Snow Light Snow
6:24 PM 19.9 °F 13.4 °F 17.1 °F 89% 29.83 in 3.0 mi NE 4.6 mph - 0.01 in Snow Light Snow
6:34 PM 19.0 °F 11.1 °F 17.1 °F 92% 29.84 in 1.8 mi NE 5.8 mph - 0.01 in Snow Light Snow
6:53 PM 19.0 °F - 17.1 °F 92% 29.94 in 2.0 mi Calm Calm - 0.01 in Snow Light Snow
7:04 PM 19.0 °F - 17.1 °F 92% 29.85 in 3.0 mi Calm Calm - 0.00 in Snow Light Snow
7:15 PM 19.0 °F 13.9 °F 17.1 °F 92% 29.85 in 2.0 mi NE 3.5 mph - 0.00 in Snow Light Snow
7:23 PM 19.9 °F 14.9 °F 16.0 °F 85% 29.86 in 1.5 mi NE 3.5 mph - 0.00 in Snow Light Snow
7:30 PM 19.0 °F - 17.1 °F 92% 29.85 in 3.0 mi Calm Calm - 0.00 in Snow Light Snow
7:45 PM 18.0 °F 12.7 °F 16.0 °F 92% 29.85 in 9.0 mi East 3.5 mph - 0.00 in   Scattered Clouds
7:53 PM 17.1 °F - 15.1 °F 92% 29.97 in 10.0 mi Calm Calm - 0.00 in   Mostly Cloudy
8:53 PM 18.0 °F 12.7 °F 16.0 °F 92% 29.98 in 7.0 mi ESE 3.5 mph - 0.00 in   Mostly Cloudy
9:00 PM 19.0 °F 13.9 °F 16.0 °F 88% 29.87 in 1.8 mi East 3.5 mph - 0.00 in Snow Light Snow
9:10 PM 19.0 °F 13.9 °F 17.1 °F 92% 29.87 in 1.0 mi East 3.5 mph - 0.00 in Snow Light Snow
9:22 PM 19.0 °F 12.3 °F 17.1 °F 92% 29.87 in 0.8 mi SSE 4.6 mph - 0.00 in Snow Light Snow
9:32 PM 19.0 °F 10.0 °F 17.1 °F 92% 29.87 in 1.5 mi South 6.9 mph - 0.00 in Snow Light Snow
9:49 PM 19.4 °F 10.4 °F 17.6 °F 93% 29.87 in 0.8 mi SSE 6.9 mph - 0.00 in Snow Light Snow
9:53 PM 19.9 °F 11.1 °F 17.1 °F 89% 29.96 in 0.8 mi SSE 6.9 mph - 0.00 in Snow Light Snow
10:01 PM 19.9 °F 11.1 °F 17.1 °F 89% 29.87 in 1.2 mi SSE 6.9 mph - 0.00 in Snow Light Snow
10:05 PM 19.9 °F 11.1 °F 17.1 °F 89% 29.87 in 0.8 mi SSE 6.9 mph - 0.01 in Snow Light Snow
10:12 PM 19.9 °F 10.1 °F 17.1 °F 89% 29.87 in 0.5 mi South 8.1 mph - 0.01 in Fog , Snow Snow
10:19 PM 19.9 °F 10.1 °F 17.1 °F 89% 29.86 in 0.5 mi SSE 8.1 mph - 0.01 in Fog , Snow Snow
10:25 PM 19.9 °F 9.3 °F 17.1 °F 89% 29.86 in 0.8 mi SSE 9.2 mph - 0.01 in Snow Light Snow
10:34 PM 19.9 °F 9.3 °F 17.1 °F 89% 29.86 in 1.5 mi SSE 9.2 mph - 0.01 in Snow Light Snow
10:49 PM 19.4 °F 7.9 °F 17.6 °F 93% 29.85 in 0.8 mi SSE 10.4 mph - 0.01 in Snow Light Snow
10:53 PM 19.9 °F 8.6 °F 18.0 °F 92% 29.91 in 0.8 mi SSE 10.4 mph - 0.01 in Snow Light Snow
11:12 PM 19.9 °F 10.1 °F 18.0 °F 92% 29.85 in 1.0 mi SSE 8.1 mph - 0.00 in Snow Light Snow
11:53 PM 21.9 °F 15.7 °F 19.9 °F 92% 29.90 in 1.2 mi South 4.6 mph - 0.01 in Snow Light Snow